weather.gov     
National Weather Service

Regional Weather Roundup
NWS Homepage
This page is being discontinued on March 12, 2014.
The same data is available at this site. Please update your bookmarks.
Thank you, and we apologize for the inconvenience.
Please send an email to SR-SRH.Webmaster@noaa.gov with any concerns.


Current Version
Previous Version:    01  02  03  04  05  06  07  08  09  10  11  12  13  14  15  16  17  18  19  20  21  22  23  24  25  26  27  28  29  30  
   31  
[Printable]
129
ASUS41 KAKQ 211410
RWRAKQ

REGIONAL WEATHER ROUNDUP
NATIONAL WEATHER SERVICE WAKEFIELD VA
1000 AM EDT SUN SEP 21 2014

Note: "fair" indicates few or no clouds below 12,000 feet with no
significant weather and/or obstructions to visibility. * = Denotes
station may not report precipitation (e.g., rain,snow,etc.),
thunder or fog.

VAZ042-051-052>054-056-211500-
NORTHERN VIRGINIA

CITY           SKY/WX    TMP DP  RH WIND       PRES   REMARKS
WASH NATIONAL  CLOUDY    71  61  70 NE3       29.88S
DULLES         MOSUNNY   66  62  87 CALM      29.88S
FORT BELVOIR   PTSUNNY   67  63  87 VRB2      29.88S
QUANTICO       PTSUNNY   68  64  87 CALM      29.89S
FREDERICKSBRG* MOSUNNY   68  65  89 CALM      29.88S
STAFFORD*      MOSUNNY   66  66 100 CALM      29.92F
WARRENTON      PTSUNNY   70  66  88 CALM      29.87F
CULPEPER*      SUNNY     66  61  82 CALM      29.88F
MANASSAS*      SUNNY     64  63  94 CALM      29.88S
LEESBURG*      SUNNY     64  63  94 CALM      29.89S
WINCHESTER     SUNNY     70  57  64 SE3       29.87F
FRONT ROYAL*   SUNNY     70  59  68 SW10      29.87F
LURAY*         SUNNY     70  61  73 S3        29.89F
$$

VAZ048-049-060>072-079>083-211500-
CENTRAL AND SOUTH CENTRAL VIRGINIA...AND NORTH CENTRAL NORTH CAROLINA

CITY           SKY/WX    TMP DP  RH WIND       PRES   REMARKS
RICHMOND       PTSUNNY   71  63  75 N7        29.87F
CHESTERFIELD*  MOSUNNY  N/A N/A N/A N3        29.88F
PETERSBURG*    MOSUNNY   68  63  84 N5        29.89R
HANOVER        MOSUNNY   68  64  87 CALM      29.89F
TAPPAHANNOCK*  CLOUDY    68  66  94 NW6       29.88S
CHARLOTTSVILLE SUNNY     67  59  75 VRB3      29.88F
ORANGE*        SUNNY     70  61  73 CALM      29.89S
LOUISA*        SUNNY     70  61  73 CALM      29.87S
FARMVILLE*     SUNNY     70  61  73 CALM      29.87S
CREWE*         SUNNY     69  62  78 CALM      29.88F
FORT PICKETT*  SUNNY     66  63  91 CALM      29.89S
LUNENBURG*     SUNNY     69  64  83 N3        29.88F
SOUTH HILL*    SUNNY     72  64  78 N3        29.94R
LAWRENCEVILLE* SUNNY     67  64  91 NW3       29.88S
ROANOKE RAPIDS SUNNY     72  64  78 N7        29.87F
RALEIGH        PTSUNNY   73  62  68 VRB6      29.91F
$$

VAZ088>098-211500-
SOUTHEAST VIRGINIA

CITY           SKY/WX    TMP DP  RH WIND       PRES   REMARKS
NORFOLK        LGT RAIN  72  69  90 N14       29.80F
VIRGINIA BEACH LGT RAIN  72  70  93 N12       29.79S
NORFOLK NAVAL  CLOUDY    73  70  90 N14       29.82F
WEST POINT*    CLOUDY    70  67  91 N3        29.86F
NEWPORT NEWS   CLOUDY    75  68  78 N12       29.83S
LANGLEY AFB    CLOUDY    72  72 100 N9        29.82S
FORT EUSTIS    CLOUDY    72 N/A N/A N10       29.82S
WILLIAMSBURG*  CLOUDY    73  70  88 N6        29.85S
HR EXEC AP*    CLOUDY    72  68  88 N7        29.83F
FRANKLIN*      CLOUDY    70  66  88 NW6       29.85R
WAKEFIELD      CLOUDY    67  64  90 VRB6      29.85F
$$

VAZ020-022-025-037-045-211500-
WEST CENTRAL AND SOUTHWEST VIRGINIA

CITY           SKY/WX    TMP DP  RH WIND       PRES   REMARKS
STAUNTON*      SUNNY     68  56  66 S6        29.93F
HOT SPRINGS VA SUNNY     59  47  63 W16G26    30.02S
LYNCHBURG      SUNNY     68  60  75 SW3       29.92F
DANVILLE       SUNNY     68  61  78 SW5       29.92S
SOUTH BOSTON*  NOT AVBL
MARTINSVILLE   SUNNY     69  62  80 CALM      29.96F
ROANOKE        MOSUNNY   66  58  75 W9        29.95F
BLACKSBURG     CLOUDY    61  61 100 W3        30.00F FOG
DUBLIN*        MOSUNNY   64  64 100 SW6       30.00F
MARION*        MOSUNNY   63  59  88 W13       30.05F
HILLSVILLE*    SUNNY     64  58  82 W10       30.01F
RICHLANDS*     MOSUNNY   67  60  78 W5        30.04S
WISE*          MOSUNNY   68  63  83 SW10      30.04F
ABINGDON*      CLOUDY    66  61  84 W7        30.05S
$$

MDZ021>025-VAZ099-100-211500-
SOUTHERN MARYLAND AND THE DELMARVA PENINSULA

CITY           SKY/WX    TMP DP  RH WIND       PRES   REMARKS
PATUXENT RIVER CLOUDY    70  65  84 N8        29.85F
BAY BRIDGE APT   N/A     68  63  83 CALM      29.86F
LEONARDTOWN    CLOUDY    68  63  83 CALM      29.88S
DOVER          CLOUDY    70  70 100 N5        29.84F
GEORGETOWN     CLOUDY    73  69  87 NE8       29.85F
EASTON         FOG       68  68 100 CALM      29.89F VSB 1/2
CAMBRIDGE      CLOUDY    70  64  83 N5        29.84F
SALISBURY      CLOUDY    74  69  85 N8        29.83F HAZE
OCEAN CITY     CLOUDY   N/A N/A N/A N6        29.82F
WALLOPS ISLAND CLOUDY    72  70  93 N7        29.82F
ACCOMACK*      DRIZZLE   72  68  88 N6        29.81F
$$

NCZ012>017-030>032-211500-
EASTERN NORTH CAROLINA

CITY           SKY/WX    TMP DP  RH WIND       PRES   REMARKS
ELIZABETH CITY CLOUDY    73  70  90 N14G21    29.79R
AHOSKIE*       PTSUNNY   68  64  88 NW10G16   29.86R
EDENTON*       CLOUDY    73  70  92 N12G22    29.80S
CURRITUCK*     DRIZZLE   72  69  92 N9        29.79S
KILL DEVIL HLS CLOUDY    73  71  95 N8        29.75R
MANTEO         CLOUDY    73  70  88 N13G20    29.76R
CAPE HATTERAS  CLOUDY    73  72  96 N8        29.73S
TARBORO*       PTSUNNY   70  65  83 N8        29.88R
GOLDSBORO      PTSUNNY   70  67  89 VRB1G16   29.86R
WASHINGTON     PTSUNNY   71  68  93 NW6       29.83R
GREENVILLE     PTSUNNY   70  68  94 NW7       29.87S
NEW BERN       CLOUDY    72  68  87 NW10      29.83R
WILMINGTON     CLOUDY    73  68  84 NW13      29.87R
$$

VAZ048-211500-
ELSEWHERE

CITY           SKY/WX    TMP DP  RH WIND       PRES   REMARKS
HARRISBURG PA  CLOUDY    64  61  90 CALM      29.88R FOG
BALTIMORE      CLOUDY    67  63  87 E6        29.87F FOG
ANNAPOLIS      CLOUDY    68  63  84 NE6       29.86F
ANDREWS AFB    PTSUNNY   66  64  93 NE3       29.88F
WILMINGTON DE  CLOUDY    70  65  84 N3        29.87F
PHILADELPHIA   CLOUDY    69  64  84 N7        29.87F
WILDWOOD NJ*   PTSUNNY   72  64  78 N6        29.86S
ATLANTIC CITY  CLOUDY    69  68  96 N6        29.86S
HENDERSON NC   MOSUNNY   70  61  73 NW3       29.90F
GREENSBORO     MOSUNNY   72  60  66 W10       29.93S
ROCKY MOUNT    PTSUNNY   69  63  81 N8        29.88S
FAYETTEVILLE   SUNNY     74  61  63 N8        29.91R
CHARLOTTE      MOSUNNY   71  60  68 W6        29.98R
$$

VAZ100-211500-
MARINE

STATION/POSITION TIME  TEMP    WIND        PRES    WAVE   SWELL
                       AIR SEA DIR/SP/G            HT/PER HT/PER
                 (UTC) (F)     (DEG/KT/KT) (MB)    (FT/S) (FT/S)
44066 TX TWR #4  1400   72 71  120/ 10/ 12 1010.9F   5/ 8   5/ 8
CAPE MAY NJ      1400   71 75  350/  4/  9 1010.3R
LEWES DE         1400   71 72  360/  7/ 10 1010.4S
15NM E FENWICK I 1400   72 72              1009.6F   5/ 9
OCEAN-CITY-INLET 1400   72 71   10/  4/  5 1009.5F
WACHAPREAGUE VA  1400   70 73  340/  4/  7 1009.4F
THOMAS POINT MD  1400   67 74   20/  6/  7 1012.0F
GOOSES REEF MD   1400   69      30/  8/ 12 1011.7F
COVE POINT MD    1400   69      40/  7/ 10 1011.0S
SOLOMONS ISLAND  1400      76                N/A
BISHOPS HEAD MD  1400   70 72   40/  6/  8 1010.0F
PINEY POINT MD   1400          340/ 10/ 11   N/A
POTOMAC MD       1400   70      40/  6/ 10 1010.2F
CAMBRIDGE MD     1400   67 74  350/  7/  9 1010.8S
LEWISETTA VA     1400   70 74  360/  6/  8 1010.4F
RAPPAHANNOCK LGT 1400          350/ 16/ 17 1010.3S
STINGRAY PT      1400   72      10/ 14/ 17   N/A
YORK RVR RNG VA  1400   72     360/ 17/ 20 1009.3F
YORKTOWN VA      1400   71 76  350/ 10/ 12 1009.9F
JAMESTOWN VA     1400   67     350/  6/ 12   N/A
DOMINION TERM VA 1400   72     350/ 12/ 16 1009.8S
KIPTOPEKE VA     1400      78  360/  7/  9   N/A
CHES BAY BRIDGE  1400   72 75  350/ 16/ 18 1008.6F
CAPE HENRY VA    1400   71     350/ 17/ 19 1007.8R
CHESAPEAKE LGHT  1300   72      20/ 17/ 18 1009.0F
WILLOUBY STN VA  1400   72     350/ 13/ 15 1008.1F
S CRANEY ISL VA  1400          340/ 11/ 14 1009.1S
CAPE HENRY BUOY  1400      75                N/A     5/ 8
1ST LANDING BUOY 1400   72     350/ 16/ 17 1008.8S
CAPE CHARLES BUO 1400      74                N/A     4/10   3/10
OFFSHORE WE BUOY 1400      74                N/A     6/ 7   5/ 7
64NM E OF VA BCH 1400   74 70   30/ 19/ 25 1005.7F   7/ 7
DUCK PIER NC     1400   72 74  360/ 21/ 25 1006.5R
44100 DUCK FRF   1400      74                N/A     7/ 8   2/11
44056 DUCK FRF   1400                        N/A     6/ 9   2/11
OREGON INLET NC  1400   72 74  350/ 14/ 19 1007.0R
HATTERAS NC      1400   73 74  340/ 18/ 20 1007.2R
DIAMOND SHLS NC  1400   76     330/ 21/ 25 1005.7R   8/ 8   5/ 9
CAPE LOOKOUT NC  1300   72     340/ 19/ 23 1007.6R
$$




U.S. Dept. of Commerce
NOAA National Weather Service
1325 East West Highway
Silver Spring, MD 20910
E-mail: w-nws.webmaster@noaa.gov
Page last modified: May 16, 2007
NATIONAL WEATHER SERVICE: for Safety, for Work, for Fun - FOR LIFE